| time (UTC) | temp F | wind direction | speed MPH | gust MPH | rain 1hr in | rain 24hr in | rain mn in | humidity % | barometer mb |
| 20260905021545 | 84 | 0 | 0.0 | 0.0 | 0.00 | 0.00 | 0.00 | 73 | 1015.3 |
| 20260905020056 | 85 | 0 | 0.0 | 0.0 | 0.00 | 0.00 | 0.00 | 71 | 1015.3 |
| 20260905014545 | 86 | 0 | 0.0 | 1.0 | 0.00 | 0.00 | 0.00 | 69 | 1015.3 |
| 20260905013045 | 87 | 0 | 0.0 | 3.0 | 0.00 | 0.00 | 0.00 | 67 | 1015.3 |
| 20260905011546 | 86 | 4 | 0.0 | 0.0 | 0.00 | 0.00 | 0.00 | 69 | 1015.1 |
| 20260905010044 | 88 | 0 | 0.0 | 0.0 | 0.00 | 0.00 | 0.00 | 68 | 1015.2 |
| 20260905004548 | 89 | 0 | 0.0 | 1.0 | 0.00 | 0.00 | 0.00 | 65 | 1015.0 |
| 20260905003046 | 90 | 0 | 0.0 | 1.0 | 0.00 | 0.00 | 0.00 | 64 | 1014.7 |
| 20260905001551 | 91 | 0 | 0.0 | 1.0 | 0.00 | 0.00 | 0.00 | 62 | 1014.6 |
| 20260905000048 | 93 | 0 | 0.0 | 1.0 | 0.00 | 0.00 | 0.00 | 59 | 1014.3 |
| 20260904234547 | 94 | 98 | 0.0 | 2.0 | 0.00 | 0.00 | 0.00 | 57 | 1014.4 |
| 20260904233044 | 95 | 65 | 0.0 | 3.0 | 0.00 | 0.00 | 0.00 | 55 | 1014.2 |
| 20260904231600 | 95 | 105 | 0.0 | 1.0 | 0.00 | 0.00 | 0.00 | 55 | 1014.1 |
| 20260904230051 | 95 | 0 | 0.0 | 1.0 | 0.00 | 0.00 | 0.00 | 54 | 1014.0 |
| 20260904224545 | 97 | 0 | 0.0 | 1.0 | 0.00 | 0.00 | 0.00 | 49 | 1014.0 |
| 20260904223046 | 98 | 0 | 0.0 | 1.0 | 0.00 | 0.00 | 0.00 | 49 | 1014.0 |
| 20260904221548 | 97 | 0 | 0.0 | 1.0 | 0.00 | 0.00 | 0.00 | 51 | 1014.2 |
| 20260904220056 | 98 | 14 | 0.0 | 5.0 | 0.00 | 0.00 | 0.00 | 50 | 1014.1 |
| 20260904214548 | 97 | 0 | 0.0 | 3.0 | 0.00 | 0.00 | 0.00 | 50 | 1014.2 |
| 20260904213047 | 98 | 45 | 3.0 | 6.0 | 0.00 | 0.00 | 0.00 | 48 | 1014.3 |
| 20260904211553 | 98 | 302 | 2.0 | 7.0 | 0.00 | 0.00 | 0.00 | 47 | 1014.3 |
| 20260904210052 | 100 | 304 | 2.0 | 6.0 | 0.00 | 0.00 | 0.00 | 45 | 1014.4 |
| 20260904204551 | 99 | 71 | 3.0 | 7.0 | 0.00 | 0.00 | 0.00 | 47 | 1014.6 |
| 20260904203055 | 98 | 288 | 4.0 | 7.0 | 0.00 | 0.00 | 0.00 | 48 | 1014.7 |
| 20260904201548 | 97 | 276 | 1.0 | 5.0 | 0.00 | 0.00 | 0.00 | 49 | 1014.9 |
| 20260904200057 | 99 | 40 | 2.0 | 7.0 | 0.00 | 0.00 | 0.00 | 48 | 1015.3 |
| 20260904194553 | 99 | 281 | 3.0 | 6.0 | 0.00 | 0.00 | 0.00 | 46 | 1015.5 |
| 20260904193047 | 100 | 61 | 2.0 | 7.0 | 0.00 | 0.00 | 0.00 | 44 | 1015.8 |
| 20260904191543 | 100 | 196 | 2.0 | 5.0 | 0.00 | 0.00 | 0.00 | 46 | 1016.0 |
| 20260904190052 | 99 | 258 | 0.0 | 5.0 | 0.00 | 0.00 | 0.00 | 48 | 1016.2 |
| 20260904184545 | 98 | 141 | 1.0 | 4.0 | 0.00 | 0.00 | 0.00 | 50 | 1016.5 |
| 20260904183045 | 97 | 294 | 3.0 | 7.0 | 0.00 | 0.00 | 0.00 | 52 | 1016.6 |
| 20260904181552 | 96 | 212 | 1.0 | 5.0 | 0.00 | 0.00 | 0.00 | 54 | 1016.9 |
| 20260904180049 | 95 | 228 | 1.0 | 5.0 | 0.00 | 0.00 | 0.00 | 55 | 1017.1 |
| 20260904174545 | 95 | 307 | 3.0 | 7.0 | 0.00 | 0.00 | 0.00 | 59 | 1017.2 |
| 20260904173056 | 97 | 32 | 1.0 | 5.0 | 0.00 | 0.00 | 0.00 | 53 | 1017.4 |
| 20260904171550 | 97 | 84 | 2.0 | 5.0 | 0.00 | 0.00 | 0.00 | 55 | 1017.7 |
| 20260904170046 | 96 | 322 | 2.0 | 5.0 | 0.00 | 0.00 | 0.00 | 57 | 1017.7 |
| 20260904164545 | 95 | 20 | 3.0 | 7.0 | 0.00 | 0.00 | 0.00 | 57 | 1017.8 |
| 20260904163043 | 95 | 92 | 2.0 | 6.0 | 0.00 | 0.00 | 0.00 | 57 | 1017.9 |
| 20260904161559 | 94 | 342 | 1.0 | 3.0 | 0.00 | 0.00 | 0.00 | 59 | 1018.0 |
| 20260904160049 | 94 | 310 | 2.0 | 5.0 | 0.00 | 0.00 | 0.00 | 57 | 1018.0 |
| 20260904154547 | 93 | 0 | 1.0 | 3.0 | 0.00 | 0.00 | 0.00 | 60 | 1018.2 |
| 20260904153045 | 92 | 196 | 1.0 | 5.0 | 0.00 | 0.00 | 0.00 | 62 | 1018.1 |
| 20260904151552 | 92 | 185 | 1.0 | 3.0 | 0.00 | 0.00 | 0.00 | 62 | 1018.1 |
| 20260904150045 | 90 | 240 | 1.0 | 4.0 | 0.00 | 0.00 | 0.00 | 65 | 1018.1 |
| 20260904144545 | 89 | 205 | 1.0 | 3.0 | 0.00 | 0.00 | 0.00 | 67 | 1018.0 |
| 20260904143044 | 88 | 210 | 3.0 | 7.0 | 0.00 | 0.00 | 0.00 | 68 | 1018.0 |
| 20260904141556 | 89 | 0 | 0.0 | 2.0 | 0.00 | 0.00 | 0.00 | 68 | 1017.9 |
| 20260904140105 | 88 | 158 | 0.0 | 1.0 | 0.00 | 0.00 | 0.00 | 70 | 1017.8 |
| 20260904134606 | 85 | 214 | 0.0 | 2.0 | 0.00 | 0.00 | 0.00 | 73 | 1017.8 |
| 20260904133049 | 85 | 0 | 0.0 | 1.0 | 0.00 | 0.00 | 0.00 | 76 | 1017.7 |
| 20260904131552 | 80 | 202 | 0.0 | 2.0 | 0.00 | 0.00 | 0.00 | 81 | 1017.7 |
| 20260904130048 | 77 | 0 | 0.0 | 0.0 | 0.00 | 0.00 | 0.00 | 86 | 1017.6 |
| 20260904124547 | 76 | 0 | 0.0 | 0.0 | 0.00 | 0.00 | 0.00 | 89 | 1017.4 |
| 20260904123044 | 74 | 0 | 0.0 | 0.0 | 0.00 | 0.00 | 0.00 | 92 | 1017.2 |
| 20260904121551 | 73 | 0 | 0.0 | 0.0 | 0.00 | 0.00 | 0.00 | 92 | 1017.2 |
| 20260904120050 | 73 | 0 | 0.0 | 0.0 | 0.00 | 0.00 | 0.00 | 92 | 1017.1 |
| 20260904114545 | 72 | 0 | 0.0 | 0.0 | 0.00 | 0.00 | 0.00 | 92 | 1017.0 |
| 20260904113045 | 72 | 0 | 0.0 | 0.0 | 0.00 | 0.00 | 0.00 | 92 | 1016.8 |
| 20260904111547 | 72 | 0 | 0.0 | 0.0 | 0.00 | 0.00 | 0.00 | 92 | 1016.6 |
| 20260904110051 | 72 | 0 | 0.0 | 0.0 | 0.00 | 0.00 | 0.00 | 91 | 1016.5 |
| 20260904104546 | 73 | 0 | 0.0 | 0.0 | 0.00 | 0.00 | 0.00 | 91 | 1016.5 |
| 20260904103044 | 73 | 0 | 0.0 | 0.0 | 0.00 | 0.00 | 0.00 | 91 | 1016.4 |
| 20260904101545 | 73 | 0 | 0.0 | 0.0 | 0.00 | 0.00 | 0.00 | 91 | 1016.4 |
| 20260904100047 | 73 | 0 | 0.0 | 0.0 | 0.00 | 0.00 | 0.00 | 91 | 1016.4 |
| 20260904094555 | 74 | 0 | 0.0 | 0.0 | 0.00 | 0.00 | 0.00 | 91 | 1016.3 |
| 20260904093046 | 73 | 0 | 0.0 | 0.0 | 0.00 | 0.00 | 0.00 | 90 | 1016.2 |
| 20260904091549 | 73 | 0 | 0.0 | 0.0 | 0.00 | 0.00 | 0.00 | 90 | 1016.1 |
| 20260904090055 | 74 | 0 | 0.0 | 0.0 | 0.00 | 0.00 | 0.00 | 90 | 1016.0 |
| 20260904084549 | 74 | 0 | 0.0 | 0.0 | 0.00 | 0.00 | 0.00 | 90 | 1016.0 |
| 20260904083126 | 74 | 0 | 0.0 | 0.0 | 0.00 | 0.00 | 0.00 | 89 | 1015.9 |
| 20260904081546 | 74 | 0 | 0.0 | 0.0 | 0.00 | 0.00 | 0.00 | 89 | 1016.0 |
| 20260904080045 | 74 | 0 | 0.0 | 0.0 | 0.00 | 0.00 | 0.00 | 89 | 1015.9 |
| 20260904074543 | 74 | 0 | 0.0 | 0.0 | 0.00 | 0.00 | 0.00 | 89 | 1015.8 |
| 20260904073052 | 75 | 0 | 0.0 | 0.0 | 0.00 | 0.00 | 0.00 | 88 | 1015.9 |
| 20260904071602 | 75 | 0 | 0.0 | 0.0 | 0.00 | 0.00 | 0.00 | 87 | 1016.0 |
| 20260904070113 | 75 | 0 | 0.0 | 0.0 | 0.00 | 0.00 | 0.00 | 87 | 1016.0 |
| 20260904064548 | 76 | 0 | 0.0 | 0.0 | 0.00 | 0.00 | 0.00 | 86 | 1016.0 |
| 20260904063059 | 76 | 0 | 0.0 | 0.0 | 0.00 | 0.00 | 0.00 | 85 | 1016.1 |
| 20260904061546 | 76 | 0 | 0.0 | 0.0 | 0.00 | 0.00 | 0.00 | 85 | 1016.1 |
| 20260904060054 | 77 | 0 | 0.0 | 0.0 | 0.00 | 0.00 | 0.00 | 85 | 1015.9 |
| 20260904054549 | 77 | 0 | 0.0 | 0.0 | 0.00 | 0.00 | 0.00 | 85 | 1016.0 |
| 20260904053100 | 77 | 0 | 0.0 | 0.0 | 0.00 | 0.00 | 0.00 | 83 | 1015.9 |
| 20260904051546 | 78 | 0 | 0.0 | 0.0 | 0.00 | 0.00 | 0.00 | 83 | 1016.0 |
| 20260904050043 | 78 | 0 | 0.0 | 0.0 | 0.00 | 0.00 | 0.00 | 82 | 1016.0 |
| 20260904044546 | 79 | 0 | 0.0 | 0.0 | 0.00 | 0.00 | 0.00 | 82 | 1016.2 |
| 20260904043056 | 79 | 0 | 0.0 | 0.0 | 0.00 | 0.00 | 0.00 | 82 | 1016.3 |
| 20260904041548 | 79 | 0 | 0.0 | 0.0 | 0.00 | 0.00 | 0.00 | 80 | 1016.3 |
| 20260904034551 | 80 | 0 | 0.0 | 0.0 | 0.00 | 0.00 | 0.00 | 79 | 1016.5 |
| 20260904033049 | 81 | 0 | 0.0 | 0.0 | 0.00 | 0.00 | 0.00 | 77 | 1016.5 |
| 20260904031555 | 81 | 0 | 0.0 | 1.0 | 0.00 | 0.00 | 0.00 | 77 | 1016.5 |
| 20260904030046 | 82 | 0 | 0.0 | 0.0 | 0.00 | 0.00 | 0.00 | 77 | 1016.6 |
| 20260904024544 | 82 | 0 | 0.0 | 0.0 | 0.00 | 0.00 | 0.00 | 77 | 1016.6 |
| 20260904023048 | 82 | 0 | 0.0 | 0.0 | 0.00 | 0.00 | 0.00 | 75 | 1016.3 |